Time,TemperatureF,DewpointF,PressureIn,WindDirection,WindDirectionDegrees,WindSpeedMPH,WindSpeedGustMPH,Humidity,HourlyPrecipIn,Conditions,Clouds,dailyrainin,SoftwareType,DateUTC
2013-02-13 00:02:00,76.0,73.0,29.98,SSE,150,7.0,11.0,89,0.00,,,0.00,,2013-02-13 05:02:00,
2013-02-13 00:12:00,76.0,73.0,29.98,SSE,158,2.0,13.0,90,0.00,,,0.00,,2013-02-13 05:12:00,
2013-02-13 00:22:00,76.0,73.0,29.98,SSE,158,2.0,13.0,90,0.00,,,0.00,,2013-02-13 05:22:00,
2013-02-13 00:32:00,76.0,73.0,29.98,SSE,151,5.0,10.0,90,0.00,,,0.00,,2013-02-13 05:32:00,
2013-02-13 00:42:00,76.0,73.0,29.98,SSE,151,5.0,10.0,90,0.00,,,0.00,,2013-02-13 05:42:00,
2013-02-13 00:52:00,76.0,73.0,29.97,SSE,152,5.0,11.0,91,0.00,,,0.00,,2013-02-13 05:52:00,
2013-02-13 01:02:00,76.0,73.0,29.97,SSE,158,0.0,12.0,91,0.00,,,0.00,,2013-02-13 06:02:00,
2013-02-13 01:11:00,76.0,73.0,29.97,SSE,153,2.0,11.0,91,0.00,,,0.00,,2013-02-13 06:11:00,
2013-02-13 01:21:00,76.0,73.0,29.97,SSE,153,2.0,11.0,91,0.00,,,0.00,,2013-02-13 06:21:00,
2013-02-13 01:32:00,76.0,73.0,29.97,SSE,163,6.0,12.0,91,0.00,,,0.00,,2013-02-13 06:32:00,
2013-02-13 01:42:00,76.0,73.0,29.96,SSE,167,3.0,12.0,91,0.00,,,0.00,,2013-02-13 06:42:00,
2013-02-13 01:52:00,76.0,73.0,29.96,SSE,167,3.0,12.0,91,0.00,,,0.00,,2013-02-13 06:52:00,
2013-02-13 02:02:00,76.0,74.0,29.96,South,178,0.0,10.0,92,0.00,,,0.00,,2013-02-13 07:02:00,
2013-02-13 02:11:00,76.0,74.0,29.96,South,189,0.0,10.0,92,0.00,,,0.00,,2013-02-13 07:11:00,
2013-02-13 02:22:00,76.0,74.0,29.96,South,189,0.0,10.0,92,0.00,,,0.00,,2013-02-13 07:22:00,
2013-02-13 02:32:00,75.0,72.0,29.95,SSE,165,7.0,11.0,91,0.00,,,0.00,,2013-02-13 07:32:00,
2013-02-13 02:42:00,75.0,72.0,29.95,SSE,165,7.0,11.0,91,0.00,,,0.00,,2013-02-13 07:42:00,
2013-02-13 02:52:00,75.0,72.0,29.95,SSE,161,0.0,9.0,91,0.00,,,0.00,,2013-02-13 07:52:00,
2013-02-13 03:01:00,75.0,72.0,29.94,SSE,161,0.0,7.0,91,0.00,,,0.00,,2013-02-13 08:01:00,
2013-02-13 03:11:00,75.0,72.0,29.94,SSE,161,0.0,7.0,91,0.00,,,0.00,,2013-02-13 08:11:00,
2013-02-13 03:21:00,75.0,72.0,29.94,SSE,161,1.0,8.0,91,0.00,,,0.00,,2013-02-13 08:21:00,
2013-02-13 03:32:00,75.0,73.0,29.94,SSE,151,3.0,11.0,92,0.00,,,0.00,,2013-02-13 08:32:00,
2013-02-13 03:43:00,75.0,73.0,29.94,SSE,151,3.0,11.0,92,0.00,,,0.00,,2013-02-13 08:43:00,
2013-02-13 03:52:00,76.0,74.0,29.93,SE,144,0.0,10.0,92,0.00,,,0.00,,2013-02-13 08:52:00,
2013-02-13 04:02:00,76.0,74.0,29.93,SE,135,3.0,11.0,92,0.00,,,0.00,,2013-02-13 09:02:00,
2013-02-13 04:11:00,76.0,74.0,29.93,SE,135,3.0,11.0,92,0.00,,,0.00,,2013-02-13 09:11:00,
2013-02-13 04:21:00,75.0,73.0,29.93,SSE,157,5.0,11.0,92,0.00,,,0.00,,2013-02-13 09:21:00,
2013-02-13 04:31:00,76.0,74.0,29.93,SSE,149,3.0,13.0,92,0.00,,,0.00,,2013-02-13 09:31:00,
2013-02-13 04:42:00,76.0,74.0,29.93,SSE,160,6.0,11.0,92,0.00,,,0.00,,2013-02-13 09:42:00,
2013-02-13 04:52:00,76.0,74.0,29.93,SSE,160,6.0,11.0,92,0.00,,,0.00,,2013-02-13 09:52:00,
2013-02-13 05:01:00,76.0,74.0,29.93,SE,137,0.0,13.0,92,0.00,,,0.00,,2013-02-13 10:01:00,
2013-02-13 05:11:00,76.0,74.0,29.93,SSE,157,0.0,11.0,92,0.00,,,0.00,,2013-02-13 10:11:00,
2013-02-13 05:21:00,76.0,74.0,29.93,SSE,157,0.0,11.0,92,0.00,,,0.00,,2013-02-13 10:21:00,
2013-02-13 05:32:00,75.0,73.0,29.93,SSE,156,4.0,12.0,92,0.00,,,0.00,,2013-02-13 10:32:00,
2013-02-13 05:42:00,75.0,73.0,29.94,SSE,153,1.0,12.0,92,0.00,,,0.00,,2013-02-13 10:42:00,
2013-02-13 05:52:00,75.0,73.0,29.94,SSE,153,1.0,12.0,92,0.00,,,0.00,,2013-02-13 10:52:00,
2013-02-13 06:01:00,75.0,73.0,29.94,SSE,168,5.0,12.0,92,0.00,,,0.00,,2013-02-13 11:01:00,
2013-02-13 06:11:00,75.0,73.0,29.94,SSE,168,5.0,12.0,92,0.00,,,0.00,,2013-02-13 11:11:00,
2013-02-13 06:22:00,75.0,73.0,29.94,SSE,159,7.0,15.0,92,0.00,,,0.00,,2013-02-13 11:22:00,
2013-02-13 06:32:00,75.0,72.0,29.94,South,184,5.0,13.0,91,0.00,,,0.00,,2013-02-13 11:32:00,
2013-02-13 06:42:00,76.0,73.0,29.94,SSE,158,6.0,17.0,91,0.00,,,0.00,,2013-02-13 11:42:00,
2013-02-13 06:52:00,76.0,73.0,29.94,SSE,158,6.0,17.0,91,0.00,,,0.00,,2013-02-13 11:52:00,
2013-02-13 07:02:00,76.0,73.0,29.94,SSE,148,9.0,15.0,91,0.00,,,0.00,,2013-02-13 12:02:00,
2013-02-13 07:11:00,76.0,73.0,29.95,SSE,167,4.0,14.0,91,0.00,,,0.00,,2013-02-13 12:11:00,
2013-02-13 07:22:00,76.0,73.0,29.95,SSE,167,4.0,14.0,91,0.00,,,0.00,,2013-02-13 12:22:00,
2013-02-13 07:32:00,76.0,73.0,29.95,SSE,165,7.0,16.0,91,0.00,,,0.00,,2013-02-13 12:32:00,
2013-02-13 07:42:00,76.0,73.0,29.96,SSE,155,7.0,18.0,91,0.00,,,0.00,,2013-02-13 12:42:00,
2013-02-13 07:52:00,76.0,73.0,29.96,SSE,155,7.0,18.0,91,0.00,,,0.00,,2013-02-13 12:52:00,
2013-02-13 08:02:00,76.0,73.0,29.96,South,173,7.0,16.0,91,0.00,,,0.00,,2013-02-13 13:02:00,
2013-02-13 08:11:00,76.0,73.0,29.96,South,183,7.0,16.0,91,0.00,,,0.00,,2013-02-13 13:11:00,
2013-02-13 08:21:00,76.0,73.0,29.96,South,183,7.0,16.0,91,0.00,,,0.00,,2013-02-13 13:21:00,
2013-02-13 08:32:00,76.0,73.0,29.97,South,171,6.0,18.0,91,0.00,,,0.00,,2013-02-13 13:32:00,
2013-02-13 08:42:00,77.0,74.0,29.96,SSE,164,6.0,15.0,91,0.00,,,0.00,,2013-02-13 13:42:00,
2013-02-13 08:52:00,77.0,74.0,29.96,SSE,164,6.0,15.0,91,0.00,,,0.00,,2013-02-13 13:52:00,
2013-02-13 09:01:00,77.0,74.0,29.97,South,172,9.0,18.0,90,0.00,,,0.00,,2013-02-13 14:01:00,
2013-02-13 09:11:00,77.0,74.0,29.97,South,172,9.0,18.0,90,0.00,,,0.00,,2013-02-13 14:11:00,
2013-02-13 09:21:00,77.0,74.0,29.97,SSE,162,9.0,15.0,89,0.00,,,0.00,,2013-02-13 14:21:00,
2013-02-13 09:32:00,78.0,74.0,29.98,South,178,3.0,14.0,88,0.00,,,0.00,,2013-02-13 14:32:00,
2013-02-13 09:42:00,78.0,73.0,29.98,South,186,9.0,15.0,86,0.00,,,0.00,,2013-02-13 14:42:00,
2013-02-13 09:52:00,78.0,73.0,29.98,South,186,9.0,15.0,86,0.00,,,0.00,,2013-02-13 14:52:00,
2013-02-13 10:01:00,78.0,73.0,29.98,SE,144,7.0,16.0,86,0.00,,,0.00,,2013-02-13 15:01:00,
2013-02-13 10:11:00,78.0,73.0,29.98,South,182,4.0,15.0,85,0.00,,,0.00,,2013-02-13 15:11:00,
2013-02-13 10:21:00,78.0,73.0,29.98,South,182,4.0,15.0,85,0.00,,,0.00,,2013-02-13 15:21:00,
2013-02-13 10:32:00,79.0,74.0,29.99,SE,144,2.0,16.0,85,0.00,,,0.00,,2013-02-13 15:32:00,
2013-02-13 10:42:00,79.0,74.0,29.99,SE,144,2.0,16.0,85,0.00,,,0.00,,2013-02-13 15:42:00,
2013-02-13 10:52:00,79.0,74.0,29.99,SSE,167,7.0,18.0,84,0.00,,,0.00,,2013-02-13 15:52:00,
2013-02-13 11:01:00,79.0,74.0,29.98,SE,139,6.0,17.0,84,0.00,,,0.00,,2013-02-13 16:01:00,
2013-02-13 11:11:00,79.0,73.0,29.98,South,183,7.0,16.0,83,0.00,,,0.00,,2013-02-13 16:11:00,
2013-02-13 11:21:00,79.0,73.0,29.98,South,183,7.0,16.0,83,0.00,,,0.00,,2013-02-13 16:21:00,
2013-02-13 11:32:00,79.0,74.0,29.98,South,188,2.0,18.0,84,0.00,,,0.00,,2013-02-13 16:32:00,
2013-02-13 11:42:00,79.0,74.0,29.98,South,188,2.0,18.0,84,0.00,,,0.00,,2013-02-13 16:42:00,
2013-02-13 11:52:00,79.0,73.0,29.97,South,175,9.0,15.0,83,0.00,,,0.00,,2013-02-13 16:52:00,
2013-02-13 12:01:00,79.0,73.0,29.97,SSW,196,10.0,17.0,83,0.00,,,0.00,,2013-02-13 17:01:00,
2013-02-13 12:11:00,79.0,73.0,29.97,SSW,196,10.0,17.0,83,0.00,,,0.00,,2013-02-13 17:11:00,
2013-02-13 12:21:00,79.0,74.0,29.97,SSW,192,10.0,19.0,84,0.00,,,0.00,,2013-02-13 17:21:00,
2013-02-13 12:32:00,79.0,74.0,29.96,South,169,7.0,15.0,84,0.00,,,0.00,,2013-02-13 17:32:00,
2013-02-13 12:42:00,79.0,74.0,29.96,South,169,7.0,15.0,84,0.00,,,0.00,,2013-02-13 17:42:00,
2013-02-13 12:52:00,79.0,73.0,29.96,SSW,192,9.0,15.0,82,0.00,,,0.00,,2013-02-13 17:52:00,
2013-02-13 13:02:00,79.0,73.0,29.96,SSW,209,7.0,14.0,83,0.00,,,0.00,,2013-02-13 18:02:00,
2013-02-13 13:11:00,79.0,73.0,29.96,SSW,209,7.0,14.0,83,0.00,,,0.00,,2013-02-13 18:11:00,
2013-02-13 13:23:00,79.0,73.0,29.95,South,189,9.0,18.0,82,0.00,,,0.00,,2013-02-13 18:23:00,
2013-02-13 13:32:00,79.0,73.0,29.94,SSE,168,6.0,15.0,83,0.00,,,0.00,,2013-02-13 18:32:00,
2013-02-13 13:42:00,79.0,73.0,29.94,SSE,168,6.0,15.0,83,0.00,,,0.00,,2013-02-13 18:42:00,
2013-02-13 13:52:00,80.0,74.0,29.93,South,170,10.0,16.0,82,0.00,,,0.00,,2013-02-13 18:52:00,
2013-02-13 14:01:00,79.0,73.0,29.93,South,183,7.0,18.0,83,0.00,,,0.00,,2013-02-13 19:01:00,
2013-02-13 14:11:00,79.0,74.0,29.93,SSW,196,9.0,15.0,84,0.00,,,0.00,,2013-02-13 19:11:00,
2013-02-13 14:21:00,79.0,74.0,29.93,SSW,196,9.0,15.0,84,0.00,,,0.00,,2013-02-13 19:21:00,
2013-02-13 14:32:00,79.0,74.0,29.93,SW,215,7.0,15.0,84,0.00,,,0.00,,2013-02-13 19:32:00,
2013-02-13 14:42:00,79.0,74.0,29.93,SW,215,7.0,15.0,84,0.00,,,0.00,,2013-02-13 19:42:00,
2013-02-13 14:52:00,80.0,75.0,29.92,South,186,4.0,12.0,84,0.00,,,0.00,,2013-02-13 19:52:00,
2013-02-13 15:02:00,80.0,75.0,29.92,SSW,195,1.0,17.0,84,0.00,,,0.00,,2013-02-13 20:02:00,
2013-02-13 15:11:00,80.0,75.0,29.91,South,189,8.0,14.0,84,0.00,,,0.00,,2013-02-13 20:11:00,
2013-02-13 15:21:00,80.0,75.0,29.91,South,189,8.0,14.0,84,0.00,,,0.00,,2013-02-13 20:21:00,
2013-02-13 15:32:00,79.0,74.0,29.91,South,178,6.0,16.0,85,0.00,,,0.00,,2013-02-13 20:32:00,
2013-02-13 15:42:00,79.0,74.0,29.91,South,178,6.0,16.0,84,0.00,,,0.00,,2013-02-13 20:42:00,
2013-02-13 15:52:00,79.0,74.0,29.91,South,178,6.0,16.0,84,0.00,,,0.00,,2013-02-13 20:52:00,
2013-02-13 16:01:00,79.0,74.0,29.91,SSW,196,9.0,14.0,85,0.00,,,0.00,,2013-02-13 21:01:00,
2013-02-13 16:11:00,79.0,74.0,29.91,SSW,196,9.0,14.0,85,0.00,,,0.00,,2013-02-13 21:11:00,
2013-02-13 16:21:00,79.0,74.0,29.91,SSW,197,10.0,15.0,85,0.00,,,0.00,,2013-02-13 21:21:00,
2013-02-13 16:31:00,79.0,74.0,29.91,SSW,193,7.0,13.0,85,0.00,,,0.00,,2013-02-13 21:31:00,
2013-02-13 16:42:00,79.0,74.0,29.91,South,173,6.0,13.0,85,0.00,,,0.00,,2013-02-13 21:42:00,
2013-02-13 16:52:00,79.0,74.0,29.91,South,173,6.0,13.0,85,0.00,,,0.00,,2013-02-13 21:52:00,
2013-02-13 17:02:00,79.0,74.0,29.91,South,173,6.0,13.0,85,0.00,,,0.00,,2013-02-13 22:02:00,
2013-02-13 17:11:00,78.0,73.0,29.90,South,182,0.0,10.0,85,0.00,,,0.00,,2013-02-13 22:11:00,
2013-02-13 17:21:00,78.0,73.0,29.90,South,182,0.0,10.0,85,0.00,,,0.00,,2013-02-13 22:21:00,
2013-02-13 17:32:00,78.0,73.0,29.91,South,186,1.0,11.0,85,0.00,,,0.00,,2013-02-13 22:32:00,
2013-02-13 17:42:00,78.0,73.0,29.91,South,186,1.0,11.0,85,0.00,,,0.00,,2013-02-13 22:42:00,
2013-02-13 17:52:00,78.0,73.0,29.90,South,173,0.0,7.0,85,0.00,,,0.00,,2013-02-13 22:52:00,
2013-02-13 18:01:00,77.0,72.0,29.90,South,188,0.0,5.0,85,0.00,,,0.00,,2013-02-13 23:01:00,
2013-02-13 18:11:00,77.0,72.0,29.90,SSW,192,0.0,4.0,86,0.00,,,0.00,,2013-02-13 23:11:00,
2013-02-13 18:22:00,77.0,72.0,29.90,SSW,192,0.0,4.0,86,0.00,,,0.00,,2013-02-13 23:22:00,
2013-02-13 18:32:00,77.0,72.0,29.91,South,190,0.0,0.0,86,0.00,,,0.00,,2013-02-13 23:32:00,
2013-02-13 18:42:00,77.0,72.0,29.91,South,190,0.0,0.0,86,0.00,,,0.00,,2013-02-13 23:42:00,
2013-02-13 18:52:00,76.0,72.0,29.91,South,190,0.0,0.0,87,0.00,,,0.00,,2013-02-13 23:52:00,
2013-02-13 19:02:00,76.0,72.0,29.91,South,190,0.0,5.0,88,0.00,,,0.00,,2013-02-14 00:02:00,
2013-02-13 19:11:00,76.0,72.0,29.91,South,190,0.0,5.0,88,0.00,,,0.00,,2013-02-14 00:11:00,
2013-02-13 19:22:00,76.0,72.0,29.91,South,190,0.0,0.0,88,0.00,,,0.00,,2013-02-14 00:22:00,
2013-02-13 19:32:00,76.0,72.0,29.91,South,190,0.0,0.0,88,0.00,,,0.00,,2013-02-14 00:32:00,
2013-02-13 19:42:00,76.0,72.0,29.91,South,190,0.0,0.0,88,0.00,,,0.00,,2013-02-14 00:42:00,
2013-02-13 19:52:00,76.0,73.0,29.91,South,190,0.0,0.0,89,0.00,,,0.00,,2013-02-14 00:52:00,
2013-02-13 20:01:00,76.0,73.0,29.92,South,190,0.0,4.0,89,0.00,,,0.00,,2013-02-14 01:01:00,
2013-02-13 20:11:00,76.0,73.0,29.92,South,190,0.0,4.0,89,0.00,,,0.00,,2013-02-14 01:11:00,
2013-02-13 20:21:00,76.0,73.0,29.92,South,186,0.0,0.0,89,0.00,,,0.00,,2013-02-14 01:21:00,
2013-02-13 20:32:00,76.0,73.0,29.93,South,186,0.0,0.0,90,0.00,,,0.00,,2013-02-14 01:32:00,
2013-02-13 20:41:00,76.0,73.0,29.93,South,186,0.0,0.0,90,0.00,,,0.00,,2013-02-14 01:41:00,
2013-02-13 20:52:00,76.0,73.0,29.93,SSE,160,0.0,8.0,90,0.00,,,0.00,,2013-02-14 01:52:00,
2013-02-13 21:02:00,76.0,73.0,29.93,SSE,154,0.0,9.0,90,0.00,,,0.00,,2013-02-14 02:02:00,
2013-02-13 21:11:00,76.0,73.0,29.93,SSE,156,0.0,8.0,89,0.00,,,0.00,,2013-02-14 02:11:00,
2013-02-13 21:21:00,76.0,73.0,29.93,SSE,156,0.0,8.0,89,0.00,,,0.00,,2013-02-14 02:21:00,
2013-02-13 21:32:00,76.0,73.0,29.93,SSE,157,0.0,8.0,89,0.00,,,0.00,,2013-02-14 02:32:00,
2013-02-13 21:42:00,76.0,73.0,29.93,SSE,157,0.0,8.0,89,0.00,,,0.00,,2013-02-14 02:42:00,
2013-02-13 21:52:00,76.0,73.0,29.93,SSE,157,0.0,8.0,89,0.00,,,0.00,,2013-02-14 02:52:00,
2013-02-13 22:02:00,76.0,73.0,29.93,SSE,165,0.0,0.0,89,0.00,,,0.00,,2013-02-14 03:02:00,
2013-02-13 22:11:00,76.0,73.0,29.94,South,171,2.0,8.0,89,0.00,,,0.00,,2013-02-14 03:11:00,
2013-02-13 22:22:00,76.0,73.0,29.94,South,171,2.0,8.0,89,0.00,,,0.00,,2013-02-14 03:22:00,
2013-02-13 22:32:00,76.0,73.0,29.94,South,169,0.0,0.0,89,0.00,,,0.00,,2013-02-14 03:32:00,
2013-02-13 22:42:00,76.0,73.0,29.94,South,169,0.0,0.0,89,0.00,,,0.00,,2013-02-14 03:42:00,
2013-02-13 22:52:00,76.0,73.0,29.94,South,170,0.0,6.0,89,0.00,,,0.00,,2013-02-14 03:52:00,
2013-02-13 23:01:00,76.0,73.0,29.95,South,169,0.0,0.0,89,0.00,,,0.00,,2013-02-14 04:01:00,
2013-02-13 23:12:00,76.0,73.0,29.96,South,173,0.0,7.0,89,0.00,,,0.00,,2013-02-14 04:12:00,
2013-02-13 23:21:00,76.0,73.0,29.96,South,173,0.0,7.0,89,0.00,,,0.00,,2013-02-14 04:21:00,
2013-02-13 23:32:00,76.0,73.0,29.95,South,173,0.0,6.0,89,0.00,,,0.00,,2013-02-14 04:32:00,
2013-02-13 23:42:00,76.0,73.0,29.95,South,173,0.0,6.0,89,0.00,,,0.00,,2013-02-14 04:42:00,
2013-02-13 23:52:00,76.0,73.0,29.95,South,173,0.0,4.0,90,0.00,,,0.00,,2013-02-14 04:52:00,